Погода в Алешниках

Россия / Волгоградская область     50°53′55″N   45°10′10″E
темп.,
°C
ветер,
м/с
пор.,
м/с
влажн.,
%
обл.,
%
осадки,
мм/ч
давл.,
гПа
погр.,
м
6 марта, сб
сб600:00−6сз2291100 0.0 101423
03:00−7ссз2292100 0.0 101621
06:00−7всв1194100 0.0 101621
09:00−5всв1192100 0.0 101674
12:00−3в2286100 0.0 1015310
15:00−3всв3396100 0.4 1014250
18:00−6всв2497100 0.7 1013149
21:00−7в2296100 1.0 101326
7 марта, вс
вс700:00−7сз1297100 0.4 101330
03:00−9сз4897100 0.7 1015197
06:00−11зсз599795 0.1 1016223
09:00−12з589378 0.2 1018253
12:00−7зюз611890 0.0 1017676
15:00−5юз6118048 0.0 10141016
18:00−5юз81683100 0.0 1011787
21:00−4юз101977100 0.0 1009860
8 марта, пн
пн800:00−4юз111978100 0.0 1006921
03:00−3зюз101795100 0.4 1005928
06:00−3зюз101792100 0.6 1005868
09:00−2зюз101591100 0.7 10061029
12:00−1зюз10148895 0.3 10061133
15:00−1юз9149598 0.8 10051092
18:00−3сз71195100 1.8 1006657
21:00−6сз4988100 1.9 1009429
9 марта, вт
вт900:00−12зсз479597 0.0 1011135
03:00−14з479778 0.0 101294
06:00−15з349765 0.0 101351
09:00−12з459560 0.0 1014193
12:00−9зсз459365 0.0 1015306
15:00−8зсз359177 0.0 1015406
18:00−12зсз349590 0.0 101541
21:00−13сз349691 0.0 101754
10 марта, ср
ср1000:00−14сз3596100 0.0 1017100
03:00−15сз3697100 0.0 1018114
06:00−18сз469993 0.0 1020115
09:00−18сз599584 0.1 1022301
12:00−15сз698865 0.0 1023602
15:00−15зсз698666 0.0 1023632
18:00−19зсз459538 0.0 102488
21:00−21ссз349833 0.0 102659